{"data":{"norad_id":59502,"epoch":"2026-05-24T19:30:41.609376Z","epoch_age_seconds":94442,"freshness":"FRESH","line1":"1 59502U 24071U   26144.81298159  .00004512  00000+0  17329-3 0  9991","line2":"2 59502  43.0024 270.1879 0002241 274.1560  85.9036 15.27597900119843","mean_motion":15.275979,"eccentricity":0.0002241,"inclination_deg":43.0024,"raan_deg":270.1879,"arg_perigee_deg":274.156,"mean_anomaly_deg":85.9036,"bstar":0.00017329,"rev_number":11984,"period_min":94.265644120092,"perigee_km":481.45791773085,"apogee_km":484.53307731624,"semimajor_km":6861.1324975235,"source":"CELESTRAK","updated_at":"2026-05-25T13:38:18.972617Z"}}